Regional Weather Roundup
Issued by NWS

Home | Current Version | Previous Version | Text Only | Print | Product List | Glossary On
Versions: 1 2 3 4 5 6 7 8 9 10 11 12 13 14 15 16 17 18 19 20 21 22 23 24 25 26 27 28 29 30 31 32 33 34 35 36 37 38 39 40 41 42 43 44 45 46 47 48 49 50
000
ASUS45 KBOU 280110
RWRCO

WEATHER ROUNDUP FOR COLORADO
NATIONAL WEATHER SERVICE DENVER/BOULDER CO
700 PM MDT MON JUL 27 2015

NOTE: "FAIR" INDICATES FEW OR NO CLOUDS BELOW 12000 FEET WITH NO
SIGNIFICANT WEATHER AND/OR OBSTRUCTIONS TO VISIBILITY.

COZ001>005-013-030-031-280200-
...NORTHWEST COLORADO...

CITY           SKY/WX    TMP DP  RH WIND       PRES   REMARKS
CRAIG          SUNNY     84  28  13 SW20G31   29.96S
HAYDEN         SUNNY     82  25  12 SW18G29   29.99S
MEEKER         SUNNY     84  27  12 SW16G24   30.00R
MOUNT WERNER   NOT AVBL
STEAMBOAT SPGS SUNNY     80  28  14 SW10G20   30.04R
WALDEN         MOSUNNY   73  27  17 W23G33    30.13R
$$

COZ006>008-011-280200-
...WEST CENTRAL VALLEYS...

CITY           SKY/WX    TMP DP  RH WIND       PRES   REMARKS
GRAND JUNCTION SUNNY     90  25   9 W18       29.89R
MONTROSE       SUNNY     88  31  13 SW14G23   30.00F
EAGLE          MOSUNNY   84  32  15 SW16G24   30.04R
RIFLE          SUNNY     90  22   8 W15       29.93R
DELTA          SUNNY     94  26   9 SW14G21   29.93S
NUCLA          SUNNY     88  27  11 SW12G17   30.04S
$$

COZ017>023-064>068-280200-
...SOUTHWEST COLORADO...

CITY           SKY/WX    TMP DP  RH WIND       PRES   REMARKS
DURANGO        MOSUNNY   84  36  18 SW6       30.09F
CORTEZ         SUNNY     86  32  14 SW12      30.03F
PAGOSA SPRINGS MOSUNNY   80  31  16 SW14      30.19F
TELLURIDE      SUNNY     72  30  21 W15G25    30.32S
WOLF CREEK PAS NOT AVBL
$$

COZ009-010-012-014-032>034-037-058>063-280200-
...CENTRAL COLORADO...

CITY           SKY/WX    TMP DP  RH WIND       PRES   REMARKS
ASPEN          MOSUNNY   77  33  20 SW5       30.15R
BUENA VISTA    MOSUNNY   79  27  14 W18G29    30.13R
COPPER MTN     PTSUNNY   61  30  31 W22G32    30.49S
BERTHOUD PASS  FAIR      54  43  66 NW16      30.52S
COTTONWOOD PAS MOSUNNY   73  23  15 W12G26    30.30R
GUNNISON       MOSUNNY   79  34  19 W18G28    30.18R
KREMMLING      MOSUNNY   81  23  12 SW10G22   30.09R
LEADVILLE      SUNNY     68  30  24 W14G22    30.30R
MONARCH PASS   MOSUNNY   57  32  38 W37G48    30.58S
SALIDA         MOSUNNY   83  36  18 W16G23    30.17R
SUNLIGHT       MOSUNNY   63  36  36 CALM      30.40R
WILKERSON PASS MOSUNNY   63  37  39 SW6       30.43R
$$

COZ069>075-280200-
...SAN LUIS VALLEY/SANGRE DE CRISTO MOUNTAINS...

CITY           SKY/WX    TMP DP  RH WIND       PRES   REMARKS
ALAMOSA        SUNNY     81  38  21 W12       30.14F
LA VETA PASS   MOSUNNY   63  43  48 MISG      30.31F
SAGUACHE       CLOUDY    70  46  43 NE13G18   30.16R
$$

COZ035-036-038>040-280200-
...NORTHERN COLORADO FRONT RANGE...

CITY           SKY/WX    TMP DP  RH WIND       PRES   REMARKS
DENVER INTL AP PTSUNNY   92  44  19 S14       29.83S
DMNS CITY PARK   N/A     92  45  19 SE6       29.83R
AURORA         PTSUNNY   89  45  22 SW8       29.87R
FRONT RANGE AP PTSUNNY   91  41  17 S14G21    29.85F
ERIE MUNI ARPT MOSUNNY   93  40  15 CALM      29.81R
BOULDER MUN AP MOSUNNY   91  45  19 W14       29.82S
CENTENNIAL     MOSUNNY   87  46  24 SW16G23   29.88R
BROOMFIELD     MOSUNNY   91  46  21 CALM      29.86
FORT COLLINS   MOSUNNY   90  52  27 W6        29.79R
LONGMONT       MOSUNNY   96  46  18 W5        29.82R
$$

COZ041-046-047-076>085-087-088-280200-
...PIKES PEAK/PALMER DIVIDE AND SOUTHERN FOOTHILLS...

CITY           SKY/WX    TMP DP  RH WIND       PRES   REMARKS
COLO. SPRINGS  PTSUNNY   85  46  25 S13       29.96S
A. F. ACADEMY  MOSUNNY   87  42  20 S10       29.97R
ELLICOTT       PTSUNNY  N/A N/A N/A S18G25    29.95S
FALCON         PTSUNNY   82  46  28 S10       30.03R
FORT CARSON    PTSUNNY   88  47  24 S9        29.92S
LIMON          PTSUNNY   84  51  31 S12G21    29.88S
MONUMENT HILL  MOSUNNY   77  46  33 SW8       30.02S
TRINIDAD       MOSUNNY   90  42  18 W18G25    29.98R
$$

COZ042>045-048>051-090-091-280200-
...NORTHEAST COLORADO...

CITY           SKY/WX    TMP DP  RH WIND       PRES   REMARKS
GREELEY ARPT   MOSUNNY   91  55  29 SE9       29.78R
AKRON            N/A    N/A N/A N/A MISG      29.78F
BURLINGTON     MOSUNNY   89  65  44 SE12      29.79F
WRAY           SUNNY     92  64  39 SE17G26   29.74S
STERLING       NOT AVBL
HOLYOKE        SUNNY     91  66  43 S17G25    29.73F
FORT MORGAN    MOSUNNY   89  55  31 E8        29.77S
$$

COZ086-089-092>099-280200-
...SOUTHEAST COLORADO...

CITY           SKY/WX    TMP DP  RH WIND       PRES   REMARKS
PUEBLO         PTSUNNY   95  48  20 SW13      29.84R
LA JUNTA       PTSUNNY   90  55  30 SW13      29.82S
LAMAR          MOSUNNY   94  53  25 S15       29.76S
SPRINGFIELD      N/A     87  59  38 S15G26    29.89R
$$



USA.gov is the U.S. government's official web portal to all federal, state and local government web resources and services.